Date String (YYYY-MM-DD hh:mm:ss) UTC,Instrument flags,absolute air pressure of the measurement (hPa),sample flow rate (lpm),inlet stack bypass flow (lpm),air temperature of the measurement (°C),ambient temperature measured by the external sensor (°C),aerosol sample conditioner tube jacket temperature (°C),OPC LED temperature (°C),internal box temperature (°C),relative humidity of the measurement (%),span deviation,mass concentration of particles derived from Lorenz-Mie calculation of OPC scattering (μg/m³),mass concentration of particles derived from Lorenz-Mie calculation of OPC scattering (μg/m³),mass concentration of particles derived from Lorenz-Mie calculation of OPC scattering (μg/m³)
DateTimeUTC,F1_M11,P_M11,Q1_M11,Q2_M11,T1_M11,T2_M11,T3_M11,T4_M11,T5_M11,U1_M11,ZSPAN_M11,X0_M11,X2_M11,X1_M11
2023-12-20 12:00:00,SystemResetWarning,0827.6,4.99,000.00,023.2,022.3,000.0,031.5,024.7,13.6,0000.0,0004.26,0001.42,0001.22
2023-12-20 12:01:00,SystemResetWarning,0827.6,5.00,000.00,023.2,022.3,000.0,031.5,024.7,13.6,0000.0,0004.05,0001.27,0001.12
2023-12-20 12:02:00,SystemResetWarning,0827.7,5.00,000.00,023.2,022.3,000.0,031.5,024.6,13.5,0000.0,0004.76,0001.21,0001.06
2023-12-20 12:03:00,SystemResetWarning,0827.7,5.00,000.00,023.2,022.3,000.0,031.5,024.6,13.6,0000.0,0005.09,0001.18,0001.02
2023-12-20 12:04:00,SystemResetWarning,0827.7,5.01,000.00,023.2,022.3,000.0,031.5,024.6,13.6,0000.0,0004.43,0001.16,0001.00
2023-12-20 12:05:00,SystemResetWarning,0827.7,5.00,000.00,023.2,022.3,000.0,031.5,024.6,13.7,0000.0,0003.76,0001.14,0000.98
2023-12-20 12:06:00,SystemResetWarning,0827.6,5.00,000.00,023.2,022.3,000.0,031.5,024.6,13.5,0000.0,0003.76,0001.13,0000.95
2023-12-20 12:07:00,SystemResetWarning,0827.7,5.00,000.00,023.2,022.3,000.0,031.5,024.7,13.3,0000.0,0002.74,0001.09,0000.93
2023-12-20 12:08:00,SystemResetWarning,0827.7,5.00,000.00,023.2,022.3,000.0,031.5,024.7,13.6,0000.0,0002.65,0001.07,0000.91
2023-12-20 12:09:00,SystemResetWarning,0827.8,5.00,000.00,023.2,022.3,000.0,031.5,024.7,13.7,0000.0,0002.72,0001.06,0000.89
2023-12-20 12:10:00,SystemResetWarning,0827.7,4.99,000.00,023.3,022.3,000.0,031.5,024.7,13.5,0000.0,0002.76,0001.05,0000.86
2023-12-20 12:11:00,SystemResetWarning,0827.7,5.00,000.00,023.3,022.3,000.0,031.5,024.7,13.3,0000.0,0002.80,0001.06,0000.84
2023-12-20 12:12:00,SystemResetWarning,0827.7,5.00,000.00,023.3,022.3,000.0,031.5,024.7,13.3,0000.0,0002.84,0001.07,0000.83
2023-12-20 12:13:00,SystemResetWarning,0827.7,5.00,000.00,023.3,022.3,000.0,031.5,024.7,13.3,0000.0,0002.43,0001.04,0000.81
2023-12-20 12:14:00,SystemResetWarning,0827.8,5.00,000.00,023.3,022.3,000.0,031.5,024.7,13.3,0000.0,0001.53,0001.00,0000.79
2023-12-20 12:15:00,SystemResetWarning,0827.7,5.00,000.00,023.3,022.3,000.0,031.5,024.7,13.2,0000.0,0001.50,0000.98,0000.78
2023-12-20 12:16:00,SystemResetWarning,0827.7,5.00,000.00,023.3,022.3,000.0,031.5,024.7,13.2,0000.0,0001.57,0000.98,0000.77
2023-12-20 12:17:00,SystemResetWarning,0827.8,5.00,000.00,023.3,022.3,000.0,031.5,024.7,13.0,0000.0,0001.81,0000.99,0000.77
2023-12-20 12:18:00,SystemResetWarning,0827.8,5.00,000.00,023.3,022.3,000.0,031.5,024.7,13.0,0000.0,0001.85,0001.00,0000.76
2023-12-20 12:19:00,SystemResetWarning,0827.8,5.00,000.00,023.3,022.3,000.0,031.5,024.7,13.0,0000.0,0001.90,0001.03,0000.76
2023-12-20 12:20:00,SystemResetWarning,0827.8,5.00,000.00,023.3,022.3,000.0,031.5,024.6,13.0,0000.0,0001.84,0001.02,0000.76
2023-12-20 12:21:00,SystemResetWarning,0827.8,5.00,000.00,023.3,022.3,000.0,031.5,024.7,13.0,0000.0,0001.79,0001.02,0000.77
2023-12-20 12:22:00,SystemResetWarning,0827.8,5.00,000.00,023.3,022.3,000.0,031.5,024.7,12.9,0000.0,0001.79,0001.01,0000.77
2023-12-20 12:23:00,SystemResetWarning,0827.8,5.00,000.00,023.3,022.3,000.0,031.5,024.7,13.4,0000.0,0001.87,0000.99,0000.76
2023-12-20 12:24:00,SystemResetWarning,0827.8,4.99,000.00,023.3,022.3,000.0,031.5,024.7,13.1,0000.0,0001.93,0001.03,0000.77
2023-12-20 12:25:00,SystemResetWarning,0827.8,5.00,000.00,023.3,022.3,000.0,031.5,024.7,12.8,0000.0,0002.02,0001.06,0000.78
2023-12-20 12:26:00,SystemResetWarning,0827.8,5.00,000.00,023.3,022.3,000.0,031.5,024.7,12.7,0000.0,0002.17,0001.08,0000.79
2023-12-20 12:27:00,SystemResetWarning,0827.8,5.00,000.00,023.3,022.3,000.0,031.5,024.7,12.7,0000.0,0002.45,0001.09,0000.79
2023-12-20 12:28:00,SystemResetWarning,0827.8,5.00,000.00,023.3,022.3,000.0,031.5,024.7,12.7,0000.0,0002.21,0001.09,0000.80
2023-12-20 12:29:00,SystemResetWarning,0827.8,5.00,000.00,023.3,022.3,000.0,031.5,024.7,12.7,0000.0,0002.33,0001.11,0000.80
2023-12-20 12:30:00,SystemResetWarning,0827.8,5.00,000.00,023.3,022.3,000.0,031.5,024.7,12.8,0000.0,0002.47,0001.10,0000.80
2023-12-20 12:31:00,SystemResetWarning,0828.0,5.00,000.00,023.3,022.3,000.0,031.5,024.7,12.8,0000.0,0003.47,0001.08,0000.79
2023-12-20 12:32:00,SystemResetWarning,0828.0,5.00,000.00,023.3,022.3,000.0,031.5,024.7,12.8,0000.0,0003.76,0001.08,0000.79
2023-12-20 12:33:00,SystemResetWarning,0828.0,5.00,000.00,023.3,022.3,000.0,031.5,024.7,12.8,0000.0,0003.76,0001.08,0000.79
2023-12-20 12:34:00,SystemResetWarning,0828.1,5.00,000.00,023.3,022.3,000.0,031.6,024.7,12.8,0000.0,0003.59,0001.07,0000.79
2023-12-20 12:35:00,SystemResetWarning,0828.1,5.00,000.00,023.3,022.3,000.0,031.6,024.7,12.8,0000.0,0003.83,0001.06,0000.78
2023-12-20 12:36:00,SystemResetWarning,0828.1,5.00,000.00,023.3,022.3,000.0,031.6,024.7,12.8,0000.0,0004.99,0001.06,0000.78
2023-12-20 12:37:00,SystemResetWarning,0828.1,5.00,000.00,023.3,022.4,000.0,031.6,024.7,12.8,0000.0,0005.54,0001.06,0000.78
2023-12-20 12:38:00,SystemResetWarning,0828.1,5.00,000.00,023.3,022.4,000.0,031.6,024.7,12.8,0000.0,0005.18,0001.04,0000.78
2023-12-20 12:39:00,SystemResetWarning,0828.1,5.00,000.00,023.3,022.4,000.0,031.6,024.7,12.8,0000.0,0005.19,0001.03,0000.77
2023-12-20 12:40:00,SystemResetWarning,0828.1,5.00,000.00,023.3,022.4,000.0,031.6,024.7,12.9,0000.0,0005.08,0001.01,0000.78
2023-12-20 12:41:00,SystemResetWarning,0828.1,5.00,000.00,023.3,022.4,000.0,031.6,024.7,12.9,0000.0,0004.86,0000.99,0000.78
2023-12-20 12:42:00,SystemResetWarning,0828.1,5.00,000.00,023.3,022.4,000.0,031.6,024.7,12.8,0000.0,0004.35,0001.01,0000.79
2023-12-20 12:43:00,SystemResetWarning,0828.2,4.99,000.00,023.3,022.4,000.0,031.6,024.8,12.9,0000.0,0004.04,0001.04,0000.79
2023-12-20 12:44:00,SystemResetWarning,0828.2,4.99,000.00,023.3,022.4,000.0,031.6,024.8,12.9,0000.0,0004.16,0001.07,0000.80
2023-12-20 12:45:00,SystemResetWarning,0828.2,4.99,000.00,023.3,022.4,000.0,031.6,024.8,13.0,0000.0,0004.22,0001.09,0000.80
2023-12-20 12:46:00,SystemResetWarning,0828.2,5.01,000.00,023.3,022.4,000.0,031.6,024.8,13.0,0000.0,0004.12,0001.08,0000.82
2023-12-20 12:47:00,SystemResetWarning,0828.2,5.01,000.00,023.3,022.4,000.0,031.6,024.8,13.1,0000.0,0002.74,0001.07,0000.82
2023-12-20 12:48:00,SystemResetWarning,0828.3,5.01,000.00,023.3,022.4,000.0,031.6,024.8,13.0,0000.0,0002.18,0001.08,0000.82
2023-12-20 12:49:00,SystemResetWarning,0828.3,4.99,000.00,023.3,022.4,000.0,031.6,024.8,13.0,0000.0,0002.24,0001.11,0000.83
2023-12-20 12:50:00,SystemResetWarning,0828.3,4.99,000.00,023.3,022.4,000.0,031.6,024.8,12.9,0000.0,0002.19,0001.12,0000.84
2023-12-20 12:51:00,SystemResetWarning,0828.3,5.00,000.00,023.4,022.4,000.0,031.6,024.8,13.0,0000.0,0002.12,0001.09,0000.83
2023-12-20 12:52:00,SystemResetWarning,0828.3,5.00,000.00,023.4,022.5,000.0,031.6,024.8,13.0,0000.0,0002.12,0001.08,0000.83
2023-12-20 12:53:00,SystemResetWarning,0828.3,5.00,000.00,023.4,022.5,000.0,031.6,024.8,13.0,0000.0,0001.81,0001.08,0000.83
2023-12-20 12:54:00,SystemResetWarning,0828.3,5.00,000.00,023.4,022.5,000.0,031.6,024.8,13.0,0000.0,0001.73,0001.09,0000.84
2023-12-20 12:55:00,SystemResetWarning,0828.3,5.00,000.00,023.4,022.5,000.0,031.6,024.8,13.0,0000.0,0001.66,0001.08,0000.85
2023-12-20 12:56:00,SystemResetWarning,0828.4,5.00,000.00,023.4,022.5,000.0,031.6,024.8,13.0,0000.0,0001.55,0001.05,0000.85
2023-12-20 12:57:00,SystemResetWarning,0828.4,5.00,000.00,023.4,022.5,000.0,031.6,024.8,13.0,0000.0,0001.56,0001.04,0000.85
2023-12-20 12:58:00,SystemResetWarning,0828.4,5.00,000.00,023.4,022.5,000.0,031.6,024.8,13.0,0000.0,0001.55,0001.04,0000.85
2023-12-20 12:59:00,SystemResetWarning,0828.4,5.00,000.00,023.4,022.5,000.0,031.6,024.9,13.0,0000.0,0001.56,0001.05,0000.86
